Flag for New Zealand Weather past 2 weeks in Wellington, New Zealand

Now
55 °F

Mostly cloudy.


Feels Like: 51 °F
Forecast: 54 / 57 °F
Wind: 21 mph from North

Location: Wellington Airport

Current Time: May 30, 2015 at 11:23:58 PM

Latest Report: May 30, 2015 at 11:00 PM


Visibility: N/A

Pressure: 30.12 "Hg

Humidity: 77%

Dew point: 48 °F

Location of WellingtonLocation

Historic Weather in Wellington — Graph

°F

Wellington temperature yesterday

Maximum temperature yesterday: 55 °F (at 12:30 PM)
Minimum temperature yesterday: 41 °F (at 5:30 AM)
Average temperature yesterday: 50 °F

Past Weeks' High & Low Weather Summary

 TemperatureHumidityPressure
High64 °F (May 21, 3:30 PM)94% (May 15, 10:00 PM)30.39 "Hg (May 15, 10:00 PM)
Low36 °F (May 26, 6:00 AM)33% (May 26, 4:00 PM)29.36 "Hg (May 24, 2:30 PM)
Average52 °F72%29.94 "Hg
* Reported May 15 10:00 PM — May 30 10:00 PM, Wellington, Weather by CustomWeather, © 2015

Note: Actual official high and low records may vary slightly from our data, if they occured in-between our weather recording intervals... More about our weather records

Advertising

Wellington weather history for previous 24 hours

 ConditionsComfort  
Time TempWeatherWind HumidityBarometerVisibility
10:00 PM
Sat, May 30
54 °FPassing clouds.18 mph88%30.12 "HgN/A
9:30 PM54 °FMostly cloudy.17 mph88%30.12 "HgN/A
9:00 PM55 °FPartly cloudy.22 mph77%30.12 "HgN/A
8:30 PM54 °FSprinkles. Partly cloudy.22 mph88%30.12 "HgN/A
8:00 PM54 °FSprinkles. Partly cloudy.25 mph88%30.12 "Hg6 mi
7:30 PM55 °FPartly cloudy.25 mph82%30.12 "HgN/A
7:00 PM55 °FPassing clouds.25 mph82%30.12 "HgN/A
6:30 PM55 °FPassing clouds.22 mph82%30.12 "HgN/A
6:00 PM55 °FLight rain. Partly cloudy.21 mph82%30.12 "HgN/A
5:30 PM55 °FSprinkles. Passing clouds.20 mph88%30.12 "Hg6 mi
5:00 PM55 °FPartly cloudy.16 mph82%30.12 "HgN/A
4:30 PM55 °FSprinkles. Partly cloudy.18 mph82%30.12 "HgN/A
4:00 PM55 °FBroken clouds.17 mph77%30.12 "HgN/A
3:30 PM55 °FSprinkles. Partly sunny.21 mph77%30.12 "HgN/A
3:00 PM55 °FPartly sunny.17 mph72%30.15 "HgN/A
2:30 PM55 °FLight rain. Partly sunny.18 mph77%30.12 "HgN/A
2:00 PM55 °FBroken clouds.18 mph77%30.15 "HgN/A
1:30 PM57 °FPartly sunny.21 mph67%30.15 "HgN/A
1:00 PM57 °FBroken clouds.22 mph72%30.15 "HgN/A
12:30 PM55 °FPartly sunny.21 mph72%30.15 "HgN/A
12:00 PM55 °FPartly sunny.21 mph77%30.18 "HgN/A
11:30 AM55 °FMostly cloudy.21 mph77%30.18 "HgN/A
11:00 AM55 °FPartly sunny.22 mph77%30.21 "HgN/A
10:30 AM54 °FSprinkles. Partly sunny.15 mph77%30.21 "HgN/A
10:00 AM54 °FPartly sunny.16 mph77%30.21 "HgN/A
9:30 AM54 °FBroken clouds.16 mph77%30.21 "HgN/A
8:30 AM54 °FBroken clouds.15 mph72%30.21 "HgN/A
8:00 AM52 °FBroken clouds.12 mph77%30.21 "HgN/A
7:30 AM54 °FScattered clouds.12 mph72%30.21 "HgN/A
7:00 AM54 °FCool.15 mph72%30.21 "HgN/A
6:30 AM52 °FCool.14 mph77%30.21 "HgN/A
6:00 AM54 °FCool.14 mph67%30.21 "HgN/A
5:30 AM54 °FPassing clouds.15 mph63%30.21 "HgN/A
5:00 AM54 °FPassing clouds.14 mph67%30.21 "HgN/A
4:30 AM54 °FPassing clouds.14 mph63%30.21 "HgN/A
4:00 AM54 °FPassing clouds.12 mph67%30.24 "HgN/A
3:30 AM54 °FPassing clouds.14 mph67%30.24 "HgN/A
3:00 AM52 °FPassing clouds.15 mph72%30.24 "HgN/A
2:30 AM54 °FPassing clouds.15 mph63%30.27 "HgN/A
2:00 AM54 °FPassing clouds.16 mph58%30.27 "HgN/A
1:30 AM54 °FPassing clouds.12 mph63%30.27 "HgN/A
1:00 AM54 °FCool.14 mph54%30.27 "HgN/A
12:30 AM54 °FCool.15 mph58%30.27 "HgN/A
12:00 AM54 °FCool.20 mph54%30.27 "HgN/A
11:30 PM
Fri, May 29
54 °FPassing clouds.20 mph54%30.27 "HgN/A
11:00 PM54 °FCool.14 mph51%30.30 "HgN/A
Weather by CustomWeather, © 2015

See weather overviewHow to use our weather pages